Location: Evergreen Manor
(41.4083°N, 81.4939°W)
Time: 06:50:41
(UTC+00:00)

Meteor 1-25 Rocket - Pass Details

Date: 11 December 2019
Orbit: 838 x 890 km, 81.2° (Epoch: 25 January)

Event Time Altitude Azimuth Distance (km) Brightness Sun altitude
Rises 10:38:10 0° 194° (SSW) 3,387 7.3 -22.4°
Reaches altitude 10° 10:40:34 10° 196° (SSW) 2,461 6.6 -22.0°
Maximum altitude 10:46:08 72° 281° (W) 900 4.1 -20.9°
Drops below altitude 10° 10:51:50 10° 6° (N) 2,512 6.6 -19.9°
Sets 10:54:18 0° 8° (N) 3,461 7.3 -19.4°
